| time (UTC) | temp F | wind direction | speed knots | gust knots | rain 1hr in | rain 24hr in | rain mn in | humidity % | barometer mb |
| 20260510015059 | 62 | 329 | 7.8 | 13.9 | 0.00 | 0.00 | 0.00 | 55 | 1004.9 |
| 20260510014538 | 62 | 305 | 3.5 | 15.6 | 0.00 | 0.00 | 0.00 | 54 | 1004.8 |
| 20260510014016 | 63 | 349 | 6.1 | 15.6 | 0.00 | 0.00 | 0.00 | 54 | 1004.5 |
| 20260510013540 | 63 | 325 | 5.2 | 15.6 | 0.00 | 0.00 | 0.00 | 51 | 1004.3 |
| 20260510013018 | 63 | 286 | 6.1 | 15.6 | 0.00 | 0.00 | 0.00 | 50 | 1004.1 |
| 20260510012545 | 63 | 321 | 4.3 | 12.2 | 0.00 | 0.00 | 0.00 | 51 | 1003.9 |
| 20260510012020 | 63 | 323 | 3.5 | 7.8 | 0.00 | 0.00 | 0.00 | 51 | 1003.5 |
| 20260510011543 | 63 | 329 | 1.7 | 6.1 | 0.00 | 0.00 | 0.00 | 54 | 1003.5 |
| 20260510011022 | 64 | 305 | 0.9 | 4.3 | 0.00 | 0.00 | 0.00 | 58 | 1003.3 |
| 20260510010558 | 64 | 298 | 0.0 | 3.5 | 0.00 | 0.00 | 0.00 | 55 | 1003.0 |
| 20260510010022 | 64 | 295 | 0.0 | 4.3 | 0.00 | 0.00 | 0.00 | 56 | 1003.0 |
| 20260510005558 | 64 | 314 | 0.0 | 4.3 | 0.00 | 0.00 | 0.00 | 56 | 1002.8 |
| 20260510005024 | 64 | 294 | 0.0 | 3.5 | 0.00 | 0.00 | 0.00 | 56 | 1002.7 |
| 20260510004605 | 64 | 290 | 0.0 | 3.5 | 0.00 | 0.00 | 0.00 | 55 | 1002.6 |
| 20260510004502 | 64 | 290 | 0.0 | 3.5 | 0.00 | 0.00 | 0.00 | 55 | 1002.5 |
| 20260510004042 | 64 | 290 | 0.9 | 5.2 | 0.00 | 0.00 | 0.00 | 55 | 1002.6 |
| 20260510003558 | 65 | 317 | 0.0 | 5.2 | 0.00 | 0.00 | 0.00 | 55 | 1002.6 |
| 20260510003041 | 65 | 266 | 0.9 | 5.2 | 0.00 | 0.00 | 0.00 | 55 | 1002.4 |
| 20260510002558 | 65 | 257 | 0.0 | 5.2 | 0.00 | 0.00 | 0.00 | 54 | 1002.3 |
| 20260510002042 | 65 | 290 | 0.0 | 4.3 | 0.00 | 0.00 | 0.00 | 54 | 1002.2 |
| 20260510001600 | 65 | 305 | 0.0 | 4.3 | 0.00 | 0.00 | 0.00 | 54 | 1002.2 |
| 20260510001505 | 65 | 303 | 0.0 | 4.3 | 0.00 | 0.00 | 0.00 | 54 | 1002.2 |
| 20260510001042 | 65 | 303 | 0.0 | 4.3 | 0.00 | 0.00 | 0.00 | 54 | 1002.2 |
| 20260510000559 | 65 | 298 | 0.0 | 3.5 | 0.00 | 0.00 | 0.00 | 53 | 1002.0 |
| 20260510000039 | 65 | 297 | 0.9 | 4.3 | 0.00 | 0.00 | 0.00 | 53 | 1002.1 |
| 20260509235559 | 66 | 318 | 0.9 | 4.3 | 0.00 | 0.00 | 0.00 | 52 | 1002.1 |
| 20260509235041 | 66 | 289 | 0.0 | 6.1 | 0.00 | 0.00 | 0.00 | 52 | 1002.1 |
| 20260509234556 | 66 | 288 | 0.9 | 6.1 | 0.00 | 0.00 | 0.00 | 52 | 1002.0 |
| 20260509234038 | 67 | 313 | 0.0 | 5.2 | 0.00 | 0.00 | 0.00 | 50 | 1002.0 |
| 20260509233520 | 67 | 266 | 1.7 | 7.8 | 0.00 | 0.00 | 0.00 | 50 | 1001.9 |
| 20260509233051 | 67 | 293 | 1.7 | 6.1 | 0.00 | 0.00 | 0.00 | 50 | 1001.9 |
| 20260509232528 | 67 | 284 | 0.0 | 6.1 | 0.00 | 0.00 | 0.00 | 49 | 1002.1 |
| 20260509232048 | 67 | 331 | 0.9 | 8.7 | 0.00 | 0.00 | 0.00 | 49 | 1001.8 |
| 20260509231531 | 67 | 300 | 0.9 | 8.7 | 0.00 | 0.00 | 0.00 | 48 | 1001.9 |
| 20260509231046 | 67 | 291 | 1.7 | 7.8 | 0.00 | 0.00 | 0.00 | 47 | 1001.9 |
| 20260509230522 | 68 | 321 | 0.9 | 12.2 | 0.00 | 0.00 | 0.00 | 47 | 1002.0 |
| 20260509230044 | 68 | 232 | 1.7 | 12.2 | 0.00 | 0.00 | 0.00 | 46 | 1002.0 |
| 20260509225524 | 68 | 271 | 4.3 | 11.3 | 0.00 | 0.00 | 0.00 | 45 | 1001.9 |
| 20260509225044 | 69 | 300 | 2.6 | 11.3 | 0.00 | 0.00 | 0.00 | 45 | 1001.8 |
| 20260509224523 | 69 | 241 | 4.3 | 7.8 | 0.00 | 0.00 | 0.00 | 45 | 1001.8 |
| 20260509224100 | 69 | 323 | 3.5 | 10.4 | 0.00 | 0.00 | 0.00 | 44 | 1001.8 |
| 20260509224002 | 69 | 260 | 1.7 | 10.4 | 0.00 | 0.00 | 0.00 | 46 | 1001.8 |
| 20260509223522 | 69 | 296 | 3.5 | 11.3 | 0.00 | 0.00 | 0.00 | 44 | 1002.0 |
| 20260509223101 | 69 | 263 | 3.5 | 13.9 | 0.00 | 0.00 | 0.00 | 44 | 1001.9 |
| 20260509222520 | 69 | 261 | 4.3 | 18.2 | 0.00 | 0.00 | 0.00 | 44 | 1001.8 |
| 20260509222058 | 69 | 303 | 5.2 | 14.8 | 0.00 | 0.00 | 0.00 | 44 | 1001.8 |
| 20260509222006 | 69 | 223 | 3.5 | 14.8 | 0.00 | 0.00 | 0.00 | 43 | 1001.8 |
| 20260509221527 | 69 | 235 | 2.6 | 15.6 | 0.00 | 0.00 | 0.00 | 44 | 1001.7 |
| 20260509221003 | 69 | 293 | 7.0 | 15.6 | 0.00 | 0.00 | 0.00 | 44 | 1001.8 |
| 20260509220526 | 69 | 282 | 3.5 | 13.0 | 0.00 | 0.00 | 0.00 | 45 | 1001.5 |
| 20260509220006 | 69 | 266 | 4.3 | 13.0 | 0.00 | 0.00 | 0.00 | 42 | 1001.6 |
| 20260509215540 | 69 | 315 | 4.3 | 15.6 | 0.00 | 0.00 | 0.00 | 42 | 1001.6 |
| 20260509215018 | 70 | 321 | 4.3 | 12.2 | 0.00 | 0.00 | 0.00 | 42 | 1001.6 |
| 20260509214540 | 70 | 313 | 4.3 | 11.3 | 0.00 | 0.00 | 0.00 | 43 | 1001.5 |
| 20260509214016 | 70 | 282 | 3.5 | 13.0 | 0.00 | 0.00 | 0.00 | 41 | 1001.6 |
| 20260509213538 | 69 | 218 | 5.2 | 17.4 | 0.00 | 0.00 | 0.00 | 41 | 1001.6 |
| 20260509213016 | 69 | 301 | 6.1 | 20.9 | 0.00 | 0.00 | 0.00 | 38 | 1001.5 |
| 20260509212537 | 70 | 306 | 7.0 | 20.9 | 0.00 | 0.00 | 0.00 | 39 | 1001.4 |
| 20260509212016 | 70 | 223 | 4.3 | 14.8 | 0.00 | 0.00 | 0.00 | 42 | 1001.4 |
| 20260509211539 | 70 | 317 | 5.2 | 14.8 | 0.00 | 0.00 | 0.00 | 42 | 1001.4 |
| 20260509211019 | 69 | 253 | 1.7 | 15.6 | 0.00 | 0.00 | 0.00 | 42 | 1001.2 |
| 20260509210539 | 68 | 297 | 4.3 | 15.6 | 0.00 | 0.00 | 0.00 | 41 | 1001.3 |
| 20260509210017 | 68 | 211 | 7.0 | 23.5 | 0.00 | 0.00 | 0.00 | 41 | 1001.2 |
| 20260509205538 | 69 | 313 | 5.2 | 15.6 | 0.00 | 0.00 | 0.00 | 40 | 1001.3 |
| 20260509205023 | 69 | 269 | 4.3 | 18.2 | 0.00 | 0.00 | 0.00 | 44 | 1001.2 |
| 20260509204556 | 68 | 244 | 6.1 | 18.2 | 0.00 | 0.00 | 0.00 | 47 | 1001.4 |
| 20260509204021 | 68 | 265 | 6.1 | 16.5 | 0.00 | 0.00 | 0.00 | 49 | 1001.4 |
| 20260509203558 | 68 | 292 | 2.6 | 18.2 | 0.00 | 0.00 | 0.00 | 54 | 1001.4 |
| 20260509203019 | 68 | 321 | 7.8 | 18.2 | 0.00 | 0.00 | 0.00 | 53 | 1001.4 |
| 20260509202558 | 69 | 299 | 6.1 | 13.0 | 0.00 | 0.00 | 0.00 | 53 | 1001.4 |
| 20260509202020 | 69 | 270 | 5.2 | 14.8 | 0.00 | 0.00 | 0.00 | 55 | 1001.5 |
| 20260509201557 | 69 | 314 | 3.5 | 10.4 | 0.00 | 0.00 | 0.00 | 59 | 1001.5 |
| 20260509201040 | 69 | 265 | 4.3 | 9.6 | 0.00 | 0.00 | 0.00 | 59 | 1001.5 |
| 20260509200556 | 69 | 306 | 4.3 | 14.8 | 0.00 | 0.00 | 0.00 | 58 | 1001.7 |
| 20260509200045 | 69 | 346 | 5.2 | 14.8 | 0.00 | 0.00 | 0.00 | 59 | 1001.8 |
| 20260509195518 | 69 | 309 | 5.2 | 12.2 | 0.00 | 0.00 | 0.00 | 61 | 1001.6 |
| 20260509195053 | 69 | 327 | 5.2 | 17.4 | 0.00 | 0.00 | 0.00 | 57 | 1001.5 |
| 20260509194515 | 69 | 329 | 6.1 | 17.4 | 0.00 | 0.00 | 0.00 | 58 | 1001.7 |
| 20260509194050 | 69 | 289 | 7.0 | 15.6 | 0.00 | 0.00 | 0.00 | 58 | 1001.5 |
| 20260509193514 | 68 | 233 | 1.7 | 13.9 | 0.00 | 0.00 | 0.00 | 59 | 1001.4 |
| 20260509193046 | 68 | 287 | 5.2 | 13.9 | 0.00 | 0.00 | 0.00 | 57 | 1001.5 |
| 20260509192529 | 67 | 289 | 3.5 | 13.9 | 0.00 | 0.00 | 0.00 | 58 | 1001.4 |
| 20260509192046 | 67 | 303 | 1.7 | 11.3 | 0.00 | 0.00 | 0.00 | 57 | 1001.5 |
| 20260509191528 | 67 | 271 | 5.2 | 11.3 | 0.00 | 0.00 | 0.00 | 57 | 1001.5 |
| 20260509191100 | 67 | 237 | 3.5 | 13.0 | 0.00 | 0.00 | 0.00 | 57 | 1001.5 |
| 20260509191003 | 67 | 225 | 4.3 | 13.0 | 0.00 | 0.00 | 0.00 | 58 | 1001.4 |
| 20260509190545 | 68 | 288 | 5.2 | 13.0 | 0.00 | 0.00 | 0.00 | 55 | 1001.3 |
| 20260509190022 | 68 | 225 | 4.3 | 12.2 | 0.00 | 0.00 | 0.00 | 58 | 1001.2 |
| 20260509185547 | 68 | 280 | 2.6 | 13.0 | 0.00 | 0.00 | 0.00 | 59 | 1001.2 |
| 20260509185031 | 68 | 299 | 6.1 | 13.0 | 0.00 | 0.00 | 0.00 | 58 | 1001.3 |
| 20260509184550 | 68 | 244 | 3.5 | 10.4 | 0.00 | 0.00 | 0.00 | 59 | 1001.4 |
| 20260509184029 | 68 | 294 | 3.5 | 13.9 | 0.00 | 0.00 | 0.00 | 59 | 1001.4 |
| 20260509183551 | 69 | 218 | 3.5 | 13.9 | 0.00 | 0.00 | 0.00 | 59 | 1001.4 |
| 20260509183031 | 68 | 236 | 6.1 | 13.9 | 0.00 | 0.00 | 0.00 | 60 | 1001.3 |
| 20260509182509 | 68 | 315 | 5.2 | 13.9 | 0.00 | 0.00 | 0.00 | 59 | 1001.3 |
| 20260509182031 | 68 | 271 | 6.1 | 13.9 | 0.00 | 0.00 | 0.00 | 59 | 1001.4 |
| 20260509181515 | 68 | 276 | 3.5 | 15.6 | 0.00 | 0.00 | 0.00 | 59 | 1001.5 |
| 20260509181041 | 68 | 254 | 7.0 | 15.6 | 0.00 | 0.00 | 0.00 | 59 | 1001.4 |
| 20260509180524 | 67 | 257 | 6.1 | 15.6 | 0.00 | 0.00 | 0.00 | 60 | 1001.5 |
| 20260509180052 | 68 | 259 | 4.3 | 17.4 | 0.00 | 0.00 | 0.00 | 58 | 1001.5 |
| 20260509175534 | 68 | 248 | 3.5 | 17.4 | 0.00 | 0.00 | 0.00 | 57 | 1001.6 |
| 20260509175011 | 69 | 298 | 4.3 | 16.5 | 0.00 | 0.00 | 0.00 | 58 | 1001.5 |
| 20260509174533 | 68 | 238 | 5.2 | 16.5 | 0.00 | 0.00 | 0.00 | 57 | 1001.5 |
| 20260509174015 | 69 | 222 | 7.8 | 17.4 | 0.00 | 0.00 | 0.00 | 54 | 1001.3 |
| 20260509173531 | 69 | 260 | 8.7 | 17.4 | 0.00 | 0.00 | 0.00 | 54 | 1001.3 |
| 20260509173041 | 69 | 223 | 7.0 | 15.6 | 0.00 | 0.00 | 0.00 | 55 | 1001.2 |
| 20260509172547 | 69 | 221 | 4.3 | 15.6 | 0.00 | 0.00 | 0.00 | 57 | 1001.2 |
| 20260509172024 | 69 | 257 | 7.0 | 15.6 | 0.00 | 0.00 | 0.00 | 58 | 1001.4 |
| 20260509171544 | 68 | 275 | 6.1 | 13.9 | 0.00 | 0.00 | 0.00 | 56 | 1001.3 |
| 20260509171023 | 68 | 227 | 5.2 | 11.3 | 0.00 | 0.00 | 0.00 | 59 | 1001.4 |
| 20260509170603 | 68 | 265 | 5.2 | 14.8 | 0.00 | 0.00 | 0.00 | 61 | 1001.4 |
| 20260509170502 | 67 | 239 | 4.3 | 14.8 | 0.00 | 0.00 | 0.00 | 61 | 1001.4 |
| 20260509170024 | 67 | 272 | 3.5 | 14.8 | 0.00 | 0.00 | 0.00 | 59 | 1001.6 |
| 20260509165557 | 68 | 184 | 5.2 | 15.6 | 0.00 | 0.00 | 0.00 | 60 | 1001.5 |
| 20260509165039 | 67 | 217 | 5.2 | 15.6 | 0.00 | 0.00 | 0.00 | 62 | 1001.6 |
| 20260509164603 | 67 | 216 | 6.1 | 14.8 | 0.00 | 0.00 | 0.00 | 60 | 1001.6 |
| 20260509164039 | 67 | 230 | 2.6 | 13.0 | 0.00 | 0.00 | 0.00 | 64 | 1001.6 |
| 20260509163515 | 66 | 224 | 7.0 | 15.6 | 0.00 | 0.00 | 0.00 | 63 | 1001.5 |
| 20260509163037 | 66 | 192 | 7.0 | 14.8 | 0.00 | 0.00 | 0.00 | 61 | 1001.5 |
| 20260509162520 | 66 | 281 | 5.2 | 14.8 | 0.00 | 0.00 | 0.00 | 63 | 1001.5 |
| 20260509162055 | 65 | 272 | 4.3 | 13.0 | 0.00 | 0.00 | 0.00 | 65 | 1001.3 |
| 20260509161515 | 65 | 229 | 5.2 | 13.0 | 0.00 | 0.00 | 0.00 | 64 | 1001.7 |
| 20260509161053 | 65 | 232 | 3.5 | 13.0 | 0.00 | 0.00 | 0.00 | 67 | 1001.7 |
| 20260509160515 | 64 | 249 | 5.2 | 14.8 | 0.00 | 0.00 | 0.00 | 65 | 1001.6 |
| 20260509160051 | 64 | 255 | 6.1 | 14.8 | 0.00 | 0.00 | 0.00 | 65 | 1001.8 |
| 20260509155516 | 64 | 183 | 4.3 | 12.2 | 0.00 | 0.00 | 0.00 | 66 | 1001.9 |
| 20260509155051 | 64 | 260 | 4.3 | 14.8 | 0.00 | 0.00 | 0.00 | 66 | 1002.0 |
| 20260509154533 | 64 | 248 | 4.3 | 14.8 | 0.00 | 0.00 | 0.00 | 66 | 1002.0 |
| 20260509154053 | 64 | 265 | 4.3 | 12.2 | 0.00 | 0.00 | 0.00 | 67 | 1001.9 |
| 20260509153533 | 64 | 243 | 3.5 | 12.2 | 0.00 | 0.00 | 0.00 | 67 | 1001.7 |
| 20260509153018 | 63 | 140 | 1.7 | 13.9 | 0.00 | 0.00 | 0.00 | 70 | 1001.8 |
| 20260509152042 | 63 | 267 | 0.9 | 8.7 | 0.00 | 0.00 | 0.00 | 73 | 1001.9 |
| 20260509151625 | 62 | 128 | 1.7 | 8.7 | 0.00 | 0.00 | 0.00 | 71 | 1001.9 |
| 20260509151501 | 62 | 182 | 2.6 | 8.7 | 0.00 | 0.00 | 0.00 | 73 | 1001.9 |
| 20260509151043 | 62 | 40 | 2.6 | 12.2 | 0.00 | 0.00 | 0.00 | 72 | 1001.9 |
| 20260509150517 | 62 | 144 | 3.5 | 12.2 | 0.00 | 0.00 | 0.00 | 71 | 1002.0 |
| 20260509150045 | 62 | 84 | 2.6 | 10.4 | 0.00 | 0.00 | 0.00 | 72 | 1002.0 |
| 20260509145515 | 62 | 178 | 0.9 | 13.9 | 0.00 | 0.00 | 0.00 | 74 | 1001.9 |
| 20260509145037 | 61 | 227 | 2.6 | 13.9 | 0.00 | 0.00 | 0.00 | 76 | 1002.0 |
| 20260509144519 | 61 | 203 | 1.7 | 9.6 | 0.00 | 0.00 | 0.00 | 77 | 1002.2 |
| 20260509144055 | 60 | 209 | 1.7 | 13.0 | 0.00 | 0.00 | 0.00 | 77 | 1002.2 |
| 20260509143522 | 59 | 209 | 3.5 | 13.0 | 0.00 | 0.00 | 0.00 | 78 | 1002.3 |
| 20260509143104 | 59 | 134 | 1.7 | 6.1 | 0.00 | 0.00 | 0.00 | 81 | 1002.3 |
| 20260509142517 | 59 | 63 | 1.7 | 6.1 | 0.00 | 0.00 | 0.00 | 80 | 1002.4 |
| 20260509142056 | 59 | 154 | 0.9 | 6.1 | 0.00 | 0.00 | 0.00 | 81 | 1002.4 |
| 20260509141533 | 58 | 210 | 2.6 | 7.0 | 0.00 | 0.00 | 0.00 | 82 | 1002.4 |
| 20260509141052 | 58 | 144 | 0.9 | 5.2 | 0.00 | 0.00 | 0.00 | 83 | 1002.4 |
| 20260509140532 | 57 | 183 | 0.9 | 5.2 | 0.00 | 0.00 | 0.00 | 84 | 1002.6 |
| 20260509140047 | 57 | 216 | 0.0 | 4.3 | 0.00 | 0.00 | 0.00 | 84 | 1002.6 |
| 20260509135534 | 57 | 107 | 0.9 | 6.1 | 0.00 | 0.00 | 0.00 | 84 | 1002.6 |
| 20260509135048 | 57 | 212 | 1.7 | 7.8 | 0.00 | 0.00 | 0.00 | 84 | 1002.6 |
| 20260509134527 | 57 | 136 | 0.9 | 6.1 | 0.00 | 0.00 | 0.00 | 85 | 1002.7 |
| 20260509134059 | 57 | 250 | 0.9 | 6.1 | 0.00 | 0.00 | 0.00 | 87 | 1002.7 |
| 20260509134000 | 57 | 157 | 1.7 | 6.1 | 0.00 | 0.00 | 0.00 | 87 | 1002.7 |
| 20260509133517 | 56 | 254 | 2.6 | 6.1 | 0.00 | 0.00 | 0.00 | 87 | 1002.7 |
| 20260509133051 | 55 | 237 | 1.7 | 6.1 | 0.00 | 0.00 | 0.00 | 87 | 1002.8 |
| 20260509132515 | 55 | 254 | 0.9 | 5.2 | 0.00 | 0.00 | 0.00 | 88 | 1002.9 |
| 20260509132052 | 55 | 154 | 0.0 | 6.1 | 0.00 | 0.00 | 0.00 | 88 | 1002.9 |
| 20260509131545 | 55 | 123 | 3.5 | 7.0 | 0.00 | 0.00 | 0.00 | 89 | 1003.0 |
| 20260509131055 | 55 | 252 | 1.7 | 8.7 | 0.00 | 0.00 | 0.00 | 90 | 1003.1 |
| 20260509130535 | 54 | 255 | 3.5 | 7.8 | 0.00 | 0.00 | 0.00 | 89 | 1003.2 |
| 20260509130039 | 54 | 240 | 1.7 | 7.8 | 0.00 | 0.00 | 0.00 | 90 | 1003.2 |
| 20260509125535 | 54 | 273 | 4.3 | 7.8 | 0.00 | 0.00 | 0.00 | 90 | 1003.3 |
| 20260509125016 | 54 | 139 | 0.9 | 4.3 | 0.00 | 0.00 | 0.00 | 91 | 1003.3 |
| 20260509124553 | 54 | 261 | 0.9 | 5.2 | 0.00 | 0.00 | 0.00 | 92 | 1003.3 |
| 20260509124017 | 53 | 247 | 2.6 | 6.1 | 0.00 | 0.00 | 0.00 | 92 | 1003.3 |
| 20260509123553 | 53 | 271 | 0.9 | 9.6 | 0.00 | 0.00 | 0.00 | 92 | 1003.4 |
| 20260509123058 | 52 | 276 | 3.5 | 9.6 | 0.00 | 0.00 | 0.00 | 93 | 1003.4 |
| 20260509122550 | 52 | 250 | 3.5 | 7.8 | 0.00 | 0.00 | 0.00 | 93 | 1003.4 |
| 20260509122032 | 52 | 239 | 1.7 | 7.8 | 0.00 | 0.00 | 0.00 | 93 | 1003.4 |
| 20260509121513 | 52 | 132 | 1.7 | 8.7 | 0.00 | 0.00 | 0.00 | 94 | 1003.5 |
| 20260509121029 | 52 | 250 | 2.6 | 8.7 | 0.00 | 0.00 | 0.00 | 94 | 1003.5 |
| 20260509120503 | 52 | 239 | 0.9 | 7.0 | 0.00 | 0.00 | 0.00 | 94 | 1003.6 |
| 20260509120030 | 52 | 250 | 0.0 | 5.2 | 0.00 | 0.00 | 0.00 | 94 | 1003.5 |
| 20260509115558 | 52 | 257 | 0.0 | 3.5 | 0.00 | 0.00 | 0.00 | 94 | 1003.6 |
| 20260509115018 | 51 | 257 | 0.9 | 3.5 | 0.00 | 0.00 | 0.00 | 94 | 1003.6 |
| 20260509114625 | 51 | 178 | 0.0 | 4.3 | 0.00 | 0.00 | 0.00 | 94 | 1003.6 |
| 20260509114019 | 51 | 240 | 0.0 | 7.0 | 0.00 | 0.00 | 0.00 | 94 | 1003.7 |
| 20260509113554 | 51 | 215 | 0.9 | 7.0 | 0.00 | 0.00 | 0.00 | 94 | 1003.7 |
| 20260509113018 | 51 | 209 | 0.0 | 3.5 | 0.00 | 0.00 | 0.00 | 94 | 1003.6 |
| 20260509112600 | 51 | 209 | 0.0 | 3.5 | 0.00 | 0.00 | 0.00 | 94 | 1003.7 |
| 20260509112015 | 51 | 190 | 0.0 | 6.1 | 0.00 | 0.00 | 0.00 | 95 | 1003.6 |
| 20260509111549 | 51 | 190 | 0.0 | 6.1 | 0.00 | 0.00 | 0.00 | 95 | 1003.6 |
| 20260509111014 | 51 | 225 | 0.9 | 3.5 | 0.00 | 0.00 | 0.00 | 95 | 1003.6 |
| 20260509110547 | 51 | 200 | 0.0 | 3.5 | 0.00 | 0.00 | 0.00 | 94 | 1003.5 |
| 20260509110011 | 51 | 130 | 0.0 | 2.6 | 0.00 | 0.00 | 0.00 | 94 | 1003.4 |
| 20260509105546 | 50 | 126 | 0.0 | 3.5 | 0.00 | 0.00 | 0.00 | 94 | 1003.3 |
| 20260509105010 | 50 | 125 | 0.0 | 3.5 | 0.00 | 0.00 | 0.00 | 94 | 1003.3 |
| 20260509104547 | 50 | 118 | 0.0 | 3.5 | 0.00 | 0.00 | 0.00 | 95 | 1003.3 |
| 20260509104021 | 50 | 234 | 0.0 | 3.5 | 0.00 | 0.00 | 0.00 | 95 | 1003.4 |
| 20260509103540 | 50 | 238 | 0.0 | 4.3 | 0.00 | 0.00 | 0.00 | 95 | 1003.5 |
| 20260509103021 | 50 | 238 | 0.9 | 4.3 | 0.00 | 0.00 | 0.00 | 94 | 1003.6 |
| 20260509102556 | 50 | 246 | 1.7 | 6.1 | 0.00 | 0.00 | 0.00 | 94 | 1003.5 |
| 20260509102021 | 50 | 238 | 2.6 | 6.1 | 0.00 | 0.00 | 0.00 | 94 | 1003.5 |
| 20260509101603 | 50 | 246 | 0.0 | 10.4 | 0.00 | 0.00 | 0.00 | 94 | 1003.6 |
| 20260509101040 | 50 | 233 | 0.0 | 5.2 | 0.00 | 0.00 | 0.00 | 94 | 1003.7 |
| 20260509100554 | 50 | 170 | 0.0 | 3.5 | 0.00 | 0.00 | 0.00 | 94 | 1003.6 |
| 20260509100037 | 50 | 169 | 0.9 | 3.5 | 0.00 | 0.00 | 0.00 | 94 | 1003.6 |
| 20260509095515 | 50 | 261 | 0.0 | 3.5 | 0.00 | 0.00 | 0.00 | 94 | 1003.6 |
| 20260509095036 | 50 | 261 | 0.0 | 5.2 | 0.00 | 0.00 | 0.00 | 94 | 1003.6 |
| 20260509094529 | 50 | 236 | 0.0 | 5.2 | 0.00 | 0.00 | 0.00 | 94 | 1003.7 |
| 20260509094058 | 50 | 259 | 0.0 | 4.3 | 0.00 | 0.00 | 0.00 | 94 | 1003.8 |
| 20260509093519 | 50 | 258 | 0.9 | 7.0 | 0.00 | 0.00 | 0.00 | 94 | 1003.8 |
| 20260509093055 | 50 | 225 | 1.7 | 7.0 | 0.00 | 0.00 | 0.00 | 94 | 1003.8 |
| 20260509092518 | 50 | 245 | 0.0 | 3.5 | 0.00 | 0.00 | 0.00 | 94 | 1003.8 |
| 20260509092054 | 50 | 245 | 0.9 | 2.6 | 0.00 | 0.00 | 0.00 | 94 | 1004.0 |
| 20260509091542 | 50 | 242 | 0.0 | 1.7 | 0.00 | 0.00 | 0.00 | 94 | 1003.9 |
| 20260509091054 | 50 | 242 | 0.0 | 2.6 | 0.00 | 0.00 | 0.00 | 94 | 1003.9 |
| 20260509090537 | 50 | 242 | 0.0 | 6.1 | 0.00 | 0.00 | 0.00 | 94 | 1003.9 |
| 20260509090049 | 50 | 242 | 0.9 | 6.1 | 0.00 | 0.00 | 0.00 | 94 | 1004.0 |
| 20260509085522 | 50 | 263 | 0.9 | 4.3 | 0.00 | 0.00 | 0.00 | 94 | 1004.0 |
| 20260509085045 | 50 | 240 | 0.0 | 4.3 | 0.00 | 0.00 | 0.00 | 94 | 1004.0 |
| 20260509084524 | 50 | 202 | 0.0 | 3.5 | 0.00 | 0.00 | 0.00 | 94 | 1004.0 |
| 20260509084057 | 50 | 136 | 0.0 | 3.5 | 0.00 | 0.00 | 0.00 | 94 | 1003.9 |
| 20260509083537 | 49 | 229 | 0.9 | 3.5 | 0.00 | 0.00 | 0.00 | 94 | 1004.1 |
| 20260509083055 | 49 | 221 | 0.0 | 1.7 | 0.00 | 0.00 | 0.00 | 94 | 1004.1 |
| 20260509082536 | 48 | 219 | 0.0 | 0.9 | 0.00 | 0.00 | 0.00 | 94 | 1004.0 |
| 20260509082054 | 48 | 219 | 0.0 | 0.0 | 0.00 | 0.00 | 0.00 | 93 | 1004.0 |
| 20260509081536 | 48 | 219 | 0.0 | 0.0 | 0.00 | 0.00 | 0.00 | 93 | 1003.9 |
| 20260509081056 | 48 | 227 | 0.0 | 0.0 | 0.00 | 0.00 | 0.00 | 93 | 1003.9 |
| 20260509080536 | 48 | 227 | 0.0 | 0.0 | 0.00 | 0.00 | 0.00 | 93 | 1003.9 |
| 20260509080014 | 48 | 227 | 0.0 | 0.0 | 0.00 | 0.00 | 0.00 | 93 | 1004.0 |
| 20260509075536 | 48 | 227 | 0.0 | 0.0 | 0.00 | 0.00 | 0.00 | 93 | 1004.0 |
| 20260509075014 | 48 | 227 | 0.0 | 0.0 | 0.00 | 0.00 | 0.00 | 93 | 1004.0 |
| 20260509074538 | 48 | 227 | 0.0 | 0.0 | 0.00 | 0.00 | 0.00 | 93 | 1004.1 |
| 20260509074014 | 48 | 227 | 0.0 | 0.0 | 0.00 | 0.00 | 0.00 | 93 | 1004.1 |
| 20260509073555 | 48 | 227 | 0.0 | 0.0 | 0.00 | 0.00 | 0.00 | 93 | 1004.0 |
| 20260509073044 | 48 | 227 | 0.0 | 0.0 | 0.00 | 0.00 | 0.00 | 93 | 1004.1 |
| 20260509072554 | 48 | 227 | 0.0 | 0.0 | 0.00 | 0.00 | 0.00 | 93 | 1004.2 |
| 20260509072038 | 49 | 227 | 0.0 | 0.0 | 0.00 | 0.00 | 0.00 | 93 | 1004.2 |
| 20260509071514 | 49 | 227 | 0.0 | 2.6 | 0.00 | 0.00 | 0.00 | 93 | 1004.4 |
| 20260509071036 | 49 | 227 | 0.0 | 2.6 | 0.00 | 0.00 | 0.00 | 93 | 1004.4 |
| 20260509070520 | 48 | 227 | 0.0 | 0.0 | 0.00 | 0.00 | 0.00 | 93 | 1004.5 |
| 20260509070057 | 48 | 226 | 0.0 | 0.0 | 0.00 | 0.00 | 0.00 | 93 | 1004.5 |
| 20260509065522 | 48 | 226 | 0.0 | 0.0 | 0.00 | 0.00 | 0.00 | 92 | 1004.6 |
| 20260509065101 | 48 | 226 | 0.0 | 0.0 | 0.00 | 0.00 | 0.00 | 93 | 1004.7 |
| 20260509064518 | 48 | 226 | 0.0 | 0.0 | 0.00 | 0.00 | 0.00 | 93 | 1004.8 |
| 20260509064053 | 48 | 226 | 0.0 | 0.0 | 0.00 | 0.00 | 0.00 | 92 | 1004.8 |
| 20260509063521 | 48 | 226 | 0.0 | 0.0 | 0.00 | 0.00 | 0.00 | 92 | 1004.9 |
| 20260509063054 | 48 | 226 | 0.0 | 0.0 | 0.00 | 0.00 | 0.00 | 92 | 1005.0 |
| 20260509062539 | 48 | 226 | 0.0 | 0.0 | 0.00 | 0.00 | 0.00 | 92 | 1005.1 |
| 20260509062055 | 48 | 226 | 0.0 | 0.0 | 0.00 | 0.00 | 0.00 | 92 | 1005.0 |
| 20260509061545 | 48 | 226 | 0.0 | 0.0 | 0.00 | 0.00 | 0.00 | 92 | 1005.1 |
| 20260509061011 | 48 | 226 | 0.0 | 0.0 | 0.00 | 0.00 | 0.00 | 92 | 1005.2 |
| 20260509060549 | 48 | 226 | 0.0 | 0.0 | 0.00 | 0.00 | 0.00 | 92 | 1005.3 |
| 20260509060034 | 48 | 226 | 0.0 | 0.0 | 0.00 | 0.00 | 0.00 | 91 | 1005.4 |
| 20260509055547 | 48 | 226 | 0.0 | 0.0 | 0.00 | 0.00 | 0.00 | 92 | 1005.4 |
| 20260509055032 | 48 | 226 | 0.0 | 0.0 | 0.00 | 0.00 | 0.00 | 91 | 1005.5 |
| 20260509054547 | 48 | 226 | 0.0 | 0.0 | 0.00 | 0.00 | 0.00 | 91 | 1005.5 |
| 20260509054023 | 48 | 226 | 0.0 | 0.0 | 0.00 | 0.00 | 0.00 | 91 | 1005.4 |
| 20260509053555 | 48 | 226 | 0.0 | 0.0 | 0.00 | 0.00 | 0.00 | 91 | 1005.4 |
| 20260509053016 | 49 | 226 | 0.0 | 0.0 | 0.00 | 0.00 | 0.00 | 91 | 1005.5 |
| 20260509052547 | 49 | 226 | 0.0 | 0.0 | 0.00 | 0.00 | 0.00 | 91 | 1005.5 |
| 20260509052032 | 49 | 226 | 0.0 | 0.0 | 0.00 | 0.00 | 0.00 | 91 | 1005.4 |
| 20260509051547 | 49 | 226 | 0.0 | 0.0 | 0.00 | 0.00 | 0.00 | 91 | 1005.5 |
| 20260509051024 | 49 | 226 | 0.0 | 0.0 | 0.00 | 0.00 | 0.00 | 91 | 1005.5 |
| 20260509050558 | 50 | 226 | 0.0 | 0.0 | 0.00 | 0.00 | 0.00 | 91 | 1005.5 |
| 20260509050026 | 50 | 226 | 0.0 | 0.0 | 0.00 | 0.00 | 0.00 | 90 | 1005.5 |
| 20260509045557 | 50 | 226 | 0.0 | 0.0 | 0.00 | 0.00 | 0.00 | 90 | 1005.5 |
| 20260509045022 | 50 | 226 | 0.0 | 0.0 | 0.00 | 0.00 | 0.00 | 90 | 1005.5 |
| 20260509044615 | 50 | 226 | 0.0 | 0.0 | 0.00 | 0.00 | 0.00 | 90 | 1005.6 |
| 20260509044022 | 51 | 226 | 0.0 | 0.0 | 0.00 | 0.00 | 0.00 | 90 | 1005.6 |
| 20260509043558 | 51 | 226 | 0.0 | 0.0 | 0.00 | 0.00 | 0.00 | 90 | 1005.7 |
| 20260509043022 | 51 | 226 | 0.0 | 0.0 | 0.00 | 0.00 | 0.00 | 90 | 1005.7 |
| 20260509042556 | 51 | 226 | 0.0 | 0.0 | 0.00 | 0.00 | 0.00 | 90 | 1005.8 |
| 20260509042038 | 51 | 226 | 0.0 | 0.0 | 0.00 | 0.00 | 0.00 | 90 | 1005.8 |
| 20260509041558 | 52 | 226 | 0.0 | 0.0 | 0.00 | 0.00 | 0.00 | 90 | 1005.8 |
| 20260509041034 | 52 | 226 | 0.0 | 3.5 | 0.00 | 0.00 | 0.00 | 90 | 1006.0 |
| 20260509040518 | 52 | 226 | 0.0 | 3.5 | 0.00 | 0.00 | 0.00 | 90 | 1006.1 |
| 20260509040049 | 51 | 215 | 0.0 | 0.0 | 0.00 | 0.00 | 0.00 | 89 | 1006.1 |
| 20260509035525 | 52 | 215 | 0.0 | 0.0 | 0.00 | 0.00 | 0.00 | 89 | 1006.1 |
| 20260509035002 | 52 | 215 | 0.0 | 0.0 | 0.00 | 0.00 | 0.00 | 89 | 1006.1 |
| 20260509034525 | 52 | 215 | 0.0 | 0.0 | 0.00 | 0.00 | 0.00 | 88 | 1006.2 |
| 20260509034002 | 52 | 215 | 0.0 | 0.0 | 0.00 | 0.00 | 0.00 | 88 | 1006.3 |
| 20260509033543 | 52 | 215 | 0.0 | 0.0 | 0.00 | 0.00 | 0.00 | 88 | 1006.3 |
| 20260509033102 | 53 | 215 | 0.0 | 0.0 | 0.00 | 0.00 | 0.00 | 88 | 1006.4 |
| 20260509033002 | 53 | 215 | 0.0 | 0.0 | 0.00 | 0.00 | 0.00 | 88 | 1006.4 |
| 20260509032541 | 53 | 215 | 0.0 | 0.0 | 0.00 | 0.00 | 0.00 | 87 | 1006.2 |
| 20260509032052 | 53 | 215 | 0.0 | 0.0 | 0.00 | 0.00 | 0.00 | 87 | 1006.3 |
| 20260509031538 | 53 | 215 | 0.0 | 0.0 | 0.00 | 0.00 | 0.00 | 87 | 1006.3 |
| 20260509031054 | 54 | 215 | 0.0 | 0.0 | 0.00 | 0.00 | 0.00 | 87 | 1006.3 |
| 20260509030535 | 54 | 215 | 0.0 | 0.0 | 0.00 | 0.00 | 0.00 | 87 | 1006.3 |
| 20260509030012 | 54 | 215 | 0.0 | 0.0 | 0.00 | 0.00 | 0.00 | 86 | 1006.4 |
| 20260509025546 | 54 | 215 | 0.0 | 0.0 | 0.00 | 0.00 | 0.00 | 85 | 1006.5 |
| 20260509025011 | 54 | 215 | 0.0 | 0.0 | 0.00 | 0.00 | 0.00 | 85 | 1006.7 |
| 20260509024546 | 54 | 215 | 0.0 | 0.0 | 0.00 | 0.00 | 0.00 | 85 | 1006.7 |
| 20260509024013 | 54 | 215 | 0.0 | 0.0 | 0.00 | 0.00 | 0.00 | 85 | 1006.6 |
| 20260509023548 | 54 | 215 | 0.0 | 0.9 | 0.00 | 0.00 | 0.00 | 85 | 1006.6 |
| 20260509023013 | 54 | 215 | 0.0 | 0.9 | 0.00 | 0.00 | 0.00 | 85 | 1006.6 |
| 20260509022546 | 54 | 215 | 0.0 | 0.0 | 0.00 | 0.00 | 0.00 | 85 | 1006.5 |
| 20260509022012 | 53 | 143 | 0.0 | 0.0 | 0.00 | 0.00 | 0.00 | 85 | 1006.4 |
| 20260509021549 | 53 | 143 | 0.0 | 0.0 | 0.00 | 0.00 | 0.00 | 84 | 1006.3 |
| 20260509021027 | 53 | 143 | 0.0 | 0.0 | 0.00 | 0.00 | 0.00 | 84 | 1006.3 |
| 20260509020544 | 53 | 143 | 0.0 | 0.0 | 0.00 | 0.00 | 0.00 | 84 | 1006.3 |
| 20260509020020 | 53 | 143 | 0.0 | 0.0 | 0.00 | 0.00 | 0.00 | 83 | 1006.2 |
| 20260509015558 | 53 | 143 | 0.0 | 0.0 | 0.00 | 0.00 | 0.00 | 83 | 1006.1 |
| 20260509015503 | 53 | 143 | 0.0 | 0.0 | 0.00 | 0.00 | 0.00 | 83 | 1006.2 |